Weather in Shiryaevo

Russia / Voronezh Oblast     50°20′28″N   40°59′02″E
temp.,
°C
wind,
m/s
gust,
m/s
humid.,
%
clouds,
%
prec.,
mm/h
press.,
hPa
HPBL,
m
27 november, sat
sat2700:00−2sse3109535 0.0 1021210
03:00−2sse399726 0.0 1020175
06:00−1sse5149598 0.0 1019312
09:000sse6159396 0.0 1018376
12:00+4sse81776100 0.0 1016633
15:00+4sse91676100 0.0 1014564
18:00+3sse81883100 0.5 1012569
21:00+4sse81785100 0.6 1011551
28 november, sun
sun2800:00+5s61386100 0.1 1011471
03:00+5s51190100 0.3 1010348
06:00+5s4994100 0.0 1010248
09:00+6s3996100 0.1 1011271
12:00+7s379289 0.1 1011279
15:00+9ssw4786100 0.1 1012340
18:00+7s2393100 0.1 101371
21:00+7sse2393100 0.1 101365
29 november, mon
mon2900:00+7sse3492100 0.0 101367
03:00+8sse41095100 0.0 1012266
06:00+8sse61386100 0.3 1011368
09:00+8sse61678100 1.7 1011546
12:00+9sse81772100 1.2 1009667
15:00+10sse9177894 1.3 1006701
18:00+10sse102079100 1.7 1003750
21:00+11s12227598 2.3 999908
30 november, tue
tue3000:00+11s102090100 2.8 996957
03:00+13ssw111884100 2.9 9941015
06:00+12sw91683100 2.0 994920
09:00+9wsw71378100 2.2 996837
12:00+9wsw71364100 0.0 997891
15:00+7wsw71356100 0.0 998895
18:00+5sw5116477 0.0 998503
21:00+3sw51171100 0.0 998366
1 december, wed
wed100:00+2sw3976100 0.0 997259
03:00+1wsw41074100 0.0 997368
06:00+1w51077100 0.0 998558
09:00−1w61184100 0.0 1000728
12:000w81168100 0.0 10011038
15:00+1w7126332 0.0 10021232
18:000wsw51267100 0.0 1003479
21:00+1wsw6126579 0.0 1003975